Wetterdaten: Donnerstag, 29.10.2015
Datum Zeit Temp. A. Feuchte A. Luftdruck Regen Wind Richtung Richtung Sonnenschein ET UV Solar Taupunkt Windchill Windben Empfang
29.10.2015 00:00 8,1 C 93 % 1012,1 hPa 0,0 l/m 9,6 km/h (2 Bft) O-SO 111 0 min 0,000 mm 0,0 UV-I 0 W/m 7,0 C 5,8 C 16,1 km/h (3 Bft) 100,00 %
29.10.2015 00:05 8,1 C 93 % 1012,1 hPa 0,0 l/m 9,8 km/h (2 Bft) NO 35 0 min 0,000 mm 0,0 UV-I 0 W/m 7,0 C 5,6 C 17,7 km/h (3 Bft) 100,00 %
29.10.2015 00:10 8,1 C 93 % 1012,1 hPa 0,0 l/m 6,9 km/h (2 Bft) O 90 0 min 0,000 mm 0,0 UV-I 0 W/m 7,0 C 7,7 C 12,9 km/h (3 Bft) 99,13 %
29.10.2015 00:15 8,0 C 93 % 1012,1 hPa 0,0 l/m 7,3 km/h (2 Bft) O 94 0 min 0,000 mm 0,0 UV-I 0 W/m 6,9 C 7,3 C 16,1 km/h (3 Bft) 100,00 %
29.10.2015 00:20 8,1 C 93 % 1012,1 hPa 0,0 l/m 7,1 km/h (2 Bft) O 92 0 min 0,000 mm 0,0 UV-I 0 W/m 7,0 C 7,6 C 17,7 km/h (3 Bft) 99,08 %
29.10.2015 00:25 8,0 C 93 % 1012,1 hPa 0,0 l/m 8,4 km/h (2 Bft) O 88 0 min 0,000 mm 0,0 UV-I 0 W/m 6,9 C 6,5 C 14,5 km/h (3 Bft) 100,00 %
29.10.2015 00:30 8,0 C 93 % 1012,1 hPa 0,0 l/m 8,0 km/h (2 Bft) O-NO 71 0 min 0,000 mm 0,0 UV-I 0 W/m 6,9 C 6,8 C 14,5 km/h (3 Bft) 99,15 %
29.10.2015 00:35 8,0 C 93 % 1012,2 hPa 0,0 l/m 9,8 km/h (2 Bft) O 83 0 min 0,000 mm 0,0 UV-I 0 W/m 6,9 C 5,5 C 16,1 km/h (3 Bft) 98,43 %
29.10.2015 00:40 8,0 C 93 % 1012,2 hPa 0,0 l/m 10,1 km/h (2 Bft) O 101 0 min 0,000 mm 0,0 UV-I 0 W/m 6,9 C 5,3 C 17,7 km/h (3 Bft) 100,00 %
29.10.2015 00:45 8,0 C 93 % 1012,2 hPa 0,0 l/m 12,6 km/h (3 Bft) O-NO 76 0 min 0,000 mm 0,0 UV-I 0 W/m 6,9 C 3,9 C 17,7 km/h (3 Bft) 99,11 %
29.10.2015 00:50 8,0 C 93 % 1012,2 hPa 0,0 l/m 9,8 km/h (2 Bft) O 82 0 min 0,000 mm 0,0 UV-I 0 W/m 6,9 C 5,5 C 19,3 km/h (3 Bft) 99,19 %
29.10.2015 00:55 8,0 C 93 % 1012,2 hPa 0,0 l/m 10,5 km/h (2 Bft) O 87 0 min 0,000 mm 0,0 UV-I 0 W/m 6,9 C 5,1 C 17,7 km/h (3 Bft) 99,10 %
29.10.2015 01:00 8,0 C 93 % 1012,2 hPa 0,0 l/m 10,6 km/h (2 Bft) N 10 0 min 0,000 mm 0,0 UV-I 0 W/m 6,9 C 5,0 C 19,3 km/h (3 Bft) 100,00 %
29.10.2015 01:05 8,0 C 93 % 1012,2 hPa 0,0 l/m 10,4 km/h (2 Bft) O-SO 102 0 min 0,000 mm 0,0 UV-I 0 W/m 6,9 C 5,1 C 20,9 km/h (4 Bft) 99,19 %
29.10.2015 01:10 8,0 C 93 % 1012,2 hPa 0,0 l/m 7,8 km/h (2 Bft) O 98 0 min 0,000 mm 0,0 UV-I 0 W/m 6,9 C 6,9 C 14,5 km/h (3 Bft) 100,00 %
29.10.2015 01:15 8,0 C 94 % 1012,2 hPa 0,0 l/m 4,8 km/h (1 Bft) O 82 0 min 0,000 mm 0,0 UV-I 0 W/m 7,1 C 8,0 C 9,7 km/h (2 Bft) 100,00 %
29.10.2015 01:20 7,9 C 94 % 1012,3 hPa 0,0 l/m 5,7 km/h (1 Bft) O 101 0 min 0,000 mm 0,0 UV-I 0 W/m 7,0 C 7,9 C 12,9 km/h (3 Bft) 98,06 %
29.10.2015 01:25 7,9 C 94 % 1012,3 hPa 0,0 l/m 6,5 km/h (2 Bft) O-NO 63 0 min 0,000 mm 0,0 UV-I 0 W/m 7,0 C 7,8 C 12,9 km/h (3 Bft) 100,00 %
29.10.2015 01:30 7,9 C 93 % 1012,3 hPa 0,0 l/m 8,8 km/h (2 Bft) O 86 0 min 0,000 mm 0,0 UV-I 0 W/m 6,8 C 6,1 C 14,5 km/h (3 Bft) 100,00 %
29.10.2015 01:35 7,8 C 93 % 1012,2 hPa 0,0 l/m 10,7 km/h (2 Bft) O-NO 74 0 min 0,000 mm 0,0 UV-I 0 W/m 6,7 C 4,7 C 19,3 km/h (3 Bft) 99,11 %
29.10.2015 01:40 7,8 C 94 % 1012,2 hPa 0,0 l/m 9,7 km/h (2 Bft) O-SO 115 0 min 0,000 mm 0,0 UV-I 0 W/m 6,9 C 5,4 C 17,7 km/h (3 Bft) 98,26 %
29.10.2015 01:45 7,8 C 94 % 1012,2 hPa 0,0 l/m 12,2 km/h (2 Bft) O 79 0 min 0,000 mm 0,0 UV-I 0 W/m 6,9 C 3,9 C 19,3 km/h (3 Bft) 98,39 %
29.10.2015 01:50 7,8 C 94 % 1012,3 hPa 0,0 l/m 10,6 km/h (2 Bft) O 85 0 min 0,000 mm 0,0 UV-I 0 W/m 6,9 C 4,8 C 17,7 km/h (3 Bft) 100,00 %
29.10.2015 01:55 7,8 C 94 % 1012,3 hPa 0,0 l/m 8,7 km/h (2 Bft) O-NO 59 0 min 0,000 mm 0,0 UV-I 0 W/m 6,9 C 6,0 C 17,7 km/h (3 Bft) 100,00 %
29.10.2015 02:00 7,8 C 94 % 1012,3 hPa 0,0 l/m 8,6 km/h (2 Bft) O 90 0 min 0,000 mm 0,0 UV-I 0 W/m 6,9 C 6,1 C 14,5 km/h (3 Bft) 100,00 %
29.10.2015 02:05 7,8 C 94 % 1012,2 hPa 0,0 l/m 9,5 km/h (2 Bft) O 88 0 min 0,000 mm 0,0 UV-I 0 W/m 6,9 C 5,5 C 16,1 km/h (3 Bft) 100,00 %
29.10.2015 02:10 7,8 C 94 % 1012,2 hPa 0,0 l/m 9,5 km/h (2 Bft) SO 127 0 min 0,000 mm 0,0 UV-I 0 W/m 6,9 C 5,5 C 16,1 km/h (3 Bft) 100,00 %
29.10.2015 02:15 7,8 C 94 % 1012,3 hPa 0,0 l/m 7,0 km/h (2 Bft) O 87 0 min 0,000 mm 0,0 UV-I 0 W/m 6,9 C 7,3 C 14,5 km/h (3 Bft) 99,21 %
29.10.2015 02:20 7,8 C 94 % 1012,2 hPa 0,0 l/m 7,7 km/h (2 Bft) O-NO 67 0 min 0,000 mm 0,0 UV-I 0 W/m 6,9 C 6,8 C 12,9 km/h (3 Bft) 100,00 %
29.10.2015 02:25 7,8 C 94 % 1012,2 hPa 0,0 l/m 7,3 km/h (2 Bft) O 96 0 min 0,000 mm 0,0 UV-I 0 W/m 6,9 C 7,1 C 12,9 km/h (3 Bft) 99,13 %
29.10.2015 02:30 7,8 C 94 % 1012,2 hPa 0,0 l/m 7,5 km/h (2 Bft) O 87 0 min 0,000 mm 0,0 UV-I 0 W/m 6,9 C 6,9 C 14,5 km/h (3 Bft) 99,19 %
29.10.2015 02:35 7,8 C 94 % 1012,2 hPa 0,0 l/m 10,3 km/h (2 Bft) O-NO 78 0 min 0,000 mm 0,0 UV-I 0 W/m 6,9 C 5,0 C 14,5 km/h (3 Bft) 98,21 %
29.10.2015 02:40 7,8 C 94 % 1012,3 hPa 0,0 l/m 8,2 km/h (2 Bft) O 82 0 min 0,000 mm 0,0 UV-I 0 W/m 6,9 C 6,4 C 14,5 km/h (3 Bft) 100,00 %
29.10.2015 02:45 7,8 C 94 % 1012,3 hPa 0,0 l/m 6,4 km/h (2 Bft) O 94 0 min 0,000 mm 0,0 UV-I 0 W/m 6,9 C 7,8 C 12,9 km/h (3 Bft) 100,00 %
29.10.2015 02:50 7,8 C 95 % 1012,4 hPa 0,0 l/m 6,4 km/h (2 Bft) O 92 0 min 0,000 mm 0,0 UV-I 0 W/m 7,0 C 7,8 C 12,9 km/h (3 Bft) 99,11 %
29.10.2015 02:55 7,8 C 95 % 1012,4 hPa 0,0 l/m 6,2 km/h (2 Bft) O 93 0 min 0,000 mm 0,0 UV-I 0 W/m 7,0 C 7,8 C 16,1 km/h (3 Bft) 98,41 %
29.10.2015 03:00 7,8 C 95 % 1012,5 hPa 0,0 l/m 4,8 km/h (1 Bft) O-NO 69 0 min 0,000 mm 0,0 UV-I 0 W/m 7,0 C 7,8 C 11,3 km/h (2 Bft) 99,11 %
29.10.2015 03:05 7,8 C 95 % 1012,5 hPa 0,0 l/m 5,7 km/h (1 Bft) O-NO 65 0 min 0,000 mm 0,0 UV-I 0 W/m 7,0 C 7,8 C 12,9 km/h (3 Bft) 100,00 %
29.10.2015 03:10 7,8 C 95 % 1012,6 hPa 0,0 l/m 5,3 km/h (1 Bft) O-SO 112 0 min 0,000 mm 0,0 UV-I 0 W/m 7,0 C 7,8 C 12,9 km/h (3 Bft) 99,21 %
29.10.2015 03:15 7,8 C 95 % 1012,7 hPa 0,0 l/m 5,0 km/h (1 Bft) O-NO 69 0 min 0,000 mm 0,0 UV-I 0 W/m 7,0 C 7,8 C 11,3 km/h (2 Bft) 99,13 %
29.10.2015 03:20 7,8 C 95 % 1012,7 hPa 0,0 l/m 5,6 km/h (1 Bft) O-NO 61 0 min 0,000 mm 0,0 UV-I 0 W/m 7,0 C 7,8 C 11,3 km/h (2 Bft) 99,11 %
29.10.2015 03:25 7,8 C 95 % 1012,8 hPa 0,0 l/m 5,1 km/h (1 Bft) O-NO 71 0 min 0,000 mm 0,0 UV-I 0 W/m 7,0 C 7,8 C 11,3 km/h (2 Bft) 100,00 %
29.10.2015 03:30 7,8 C 95 % 1012,8 hPa 0,0 l/m 5,4 km/h (1 Bft) O 94 0 min 0,000 mm 0,0 UV-I 0 W/m 7,0 C 7,8 C 9,7 km/h (2 Bft) 100,00 %
29.10.2015 03:35 7,8 C 95 % 1012,8 hPa 0,0 l/m 4,4 km/h (1 Bft) O 99 0 min 0,000 mm 0,0 UV-I 0 W/m 7,0 C 7,8 C 9,7 km/h (2 Bft) 98,29 %
29.10.2015 03:40 7,8 C 95 % 1012,9 hPa 0,0 l/m 1,9 km/h (1 Bft) O 96 0 min 0,000 mm 0,0 UV-I 0 W/m 7,0 C 7,8 C 6,4 km/h (2 Bft) 100,00 %
29.10.2015 03:45 7,8 C 95 % 1012,9 hPa 0,0 l/m 3,7 km/h (1 Bft) NO 56 0 min 0,000 mm 0,0 UV-I 0 W/m 7,0 C 7,8 C 8,0 km/h (2 Bft) 100,00 %
29.10.2015 03:50 7,8 C 95 % 1013,0 hPa 0,0 l/m 3,2 km/h (1 Bft) O 101 0 min 0,000 mm 0,0 UV-I 0 W/m 7,0 C 7,8 C 9,7 km/h (2 Bft) 100,00 %
29.10.2015 03:55 7,8 C 95 % 1013,1 hPa 0,0 l/m 1,5 km/h (1 Bft) O-SO 121 0 min 0,000 mm 0,0 UV-I 0 W/m 7,0 C 7,8 C 4,8 km/h (1 Bft) 100,00 %
29.10.2015 04:00 7,8 C 95 % 1013,3 hPa 0,0 l/m 1,2 km/h (1 Bft) O-SO 119 0 min 0,000 mm 0,0 UV-I 0 W/m 7,0 C 7,8 C 3,2 km/h (1 Bft) 97,25 %
29.10.2015 04:05 7,8 C 95 % 1013,4 hPa 0,0 l/m 0,9 km/h (0 Bft) O-SO 119 0 min 0,000 mm 0,0 UV-I 0 W/m 7,0 C 7,8 C 3,2 km/h (1 Bft) 98,98 %
29.10.2015 04:10 7,8 C 95 % 1013,4 hPa 0,0 l/m 0,5 km/h (0 Bft) O-SO 119 0 min 0,000 mm 0,0 UV-I 0 W/m 7,0 C 7,8 C 1,6 km/h (1 Bft) 100,00 %
29.10.2015 04:15 7,8 C 95 % 1013,4 hPa 0,0 l/m 0,5 km/h (0 Bft) SO 139 0 min 0,000 mm 0,0 UV-I 0 W/m 7,0 C 7,8 C 3,2 km/h (1 Bft) 98,37 %
29.10.2015 04:20 7,8 C 95 % 1013,5 hPa 0,0 l/m 0,4 km/h (0 Bft) SO 145 0 min 0,000 mm 0,0 UV-I 0 W/m 7,0 C 7,8 C 3,2 km/h (1 Bft) 99,08 %
29.10.2015 04:25 7,8 C 95 % 1013,6 hPa 0,0 l/m 0,1 km/h (0 Bft) SO 145 0 min 0,000 mm 0,0 UV-I 0 W/m 7,0 C 7,8 C 1,6 km/h (1 Bft) 100,00 %
29.10.2015 04:30 7,8 C 95 % 1013,6 hPa 0,0 l/m 0,0 km/h (0 Bft) SO 146 0 min 0,000 mm 0,0 UV-I 0 W/m 7,0 C 7,8 C 0,0 km/h (0 Bft) 100,00 %
29.10.2015 04:35 7,8 C 95 % 1013,8 hPa 0,0 l/m 0,0 km/h (0 Bft) SO 145 0 min 0,000 mm 0,0 UV-I 0 W/m 7,0 C 7,8 C 0,0 km/h (0 Bft) 98,35 %
29.10.2015 04:40 7,8 C 95 % 1013,9 hPa 0,0 l/m 0,0 km/h (0 Bft) SO 145 0 min 0,000 mm 0,0 UV-I 0 W/m 7,0 C 7,8 C 0,0 km/h (0 Bft) 99,11 %
29.10.2015 04:45 7,8 C 95 % 1014,0 hPa 0,0 l/m 0,4 km/h (0 Bft) S-SO 168 0 min 0,000 mm 0,0 UV-I 0 W/m 7,0 C 7,8 C 3,2 km/h (1 Bft) 99,19 %
29.10.2015 04:50 7,8 C 95 % 1014,1 hPa 0,0 l/m 1,5 km/h (1 Bft) SW 232 0 min 0,000 mm 0,0 UV-I 0 W/m 7,0 C 7,8 C 3,2 km/h (1 Bft) 99,11 %
29.10.2015 04:55 7,8 C 95 % 1014,2 hPa 0,0 l/m 1,0 km/h (0 Bft) W-SW 243 0 min 0,000 mm 0,0 UV-I 0 W/m 7,0 C 7,8 C 3,2 km/h (1 Bft) 99,19 %
29.10.2015 05:00 7,8 C 95 % 1014,2 hPa 0,0 l/m 0,6 km/h (0 Bft) W-SW 243 0 min 0,000 mm 0,0 UV-I 0 W/m 7,0 C 7,8 C 3,2 km/h (1 Bft) 100,00 %
29.10.2015 05:05 7,8 C 95 % 1014,2 hPa 0,0 l/m 0,6 km/h (0 Bft) W-SW 243 0 min 0,000 mm 0,0 UV-I 0 W/m 7,0 C 7,8 C 3,2 km/h (1 Bft) 98,39 %
29.10.2015 05:10 7,7 C 96 % 1014,3 hPa 0,0 l/m 0,8 km/h (0 Bft) W-SW 257 0 min 0,000 mm 0,0 UV-I 0 W/m 7,1 C 7,7 C 3,2 km/h (1 Bft) 100,00 %
29.10.2015 05:15 7,7 C 96 % 1014,4 hPa 0,0 l/m 2,1 km/h (1 Bft) W-SW 248 0 min 0,000 mm 0,0 UV-I 0 W/m 7,1 C 7,7 C 4,8 km/h (1 Bft) 99,15 %
29.10.2015 05:20 7,8 C 96 % 1014,5 hPa 0,0 l/m 1,4 km/h (1 Bft) W-SW 240 0 min 0,000 mm 0,0 UV-I 0 W/m 7,2 C 7,8 C 4,8 km/h (1 Bft) 99,08 %
29.10.2015 05:25 7,7 C 96 % 1014,5 hPa 0,0 l/m 2,2 km/h (1 Bft) W 275 0 min 0,000 mm 0,0 UV-I 0 W/m 7,1 C 7,7 C 4,8 km/h (1 Bft) 98,41 %
29.10.2015 05:30 7,7 C 96 % 1014,5 hPa 0,0 l/m 2,7 km/h (1 Bft) S-SW 211 0 min 0,000 mm 0,0 UV-I 0 W/m 7,1 C 7,7 C 6,4 km/h (2 Bft) 99,08 %
29.10.2015 05:35 7,7 C 96 % 1014,5 hPa 0,0 l/m 1,6 km/h (1 Bft) SW 215 0 min 0,000 mm 0,0 UV-I 0 W/m 7,1 C 7,7 C 4,8 km/h (1 Bft) 96,75 %
29.10.2015 05:40 7,7 C 96 % 1014,5 hPa 0,0 l/m 0,8 km/h (0 Bft) S-SW 212 0 min 0,000 mm 0,0 UV-I 0 W/m 7,1 C 7,7 C 4,8 km/h (1 Bft) 100,00 %
29.10.2015 05:45 7,6 C 96 % 1014,6 hPa 0,0 l/m 0,3 km/h (0 Bft) S-SW 212 0 min 0,000 mm 0,0 UV-I 0 W/m 7,0 C 7,6 C 1,6 km/h (1 Bft) 99,11 %
29.10.2015 05:50 7,7 C 96 % 1014,6 hPa 0,0 l/m 0,0 km/h (0 Bft) S-SW 212 0 min 0,000 mm 0,0 UV-I 0 W/m 7,1 C 7,7 C 0,0 km/h (0 Bft) 100,00 %
29.10.2015 05:55 7,7 C 96 % 1014,7 hPa 0,0 l/m 0,3 km/h (0 Bft) S-SW 212 0 min 0,000 mm 0,0 UV-I 0 W/m 7,1 C 7,7 C 1,6 km/h (1 Bft) 99,11 %
29.10.2015 06:00 7,6 C 96 % 1014,8 hPa 0,0 l/m 0,4 km/h (0 Bft) S-SW 212 0 min 0,000 mm 0,0 UV-I 0 W/m 7,0 C 7,6 C 1,6 km/h (1 Bft) 98,35 %
29.10.2015 06:05 7,6 C 97 % 1014,8 hPa 0,0 l/m 0,1 km/h (0 Bft) S-SW 212 0 min 0,000 mm 0,0 UV-I 0 W/m 7,2 C 7,6 C 1,6 km/h (1 Bft) 99,19 %
29.10.2015 06:10 7,6 C 97 % 1014,8 hPa 0,0 l/m 0,1 km/h (0 Bft) S-SW 212 0 min 0,000 mm 0,0 UV-I 0 W/m 7,2 C 7,6 C 1,6 km/h (1 Bft) 98,97 %
29.10.2015 06:15 7,6 C 97 % 1014,8 hPa 0,0 l/m 0,0 km/h (0 Bft) S-SW 212 0 min 0,000 mm 0,0 UV-I 0 W/m 7,2 C 7,6 C 1,6 km/h (1 Bft) 99,26 %
29.10.2015 06:20 7,6 C 97 % 1014,8 hPa 0,0 l/m 0,0 km/h (0 Bft) S-SW 212 0 min 0,000 mm 0,0 UV-I 0 W/m 7,2 C 7,6 C 1,6 km/h (1 Bft) 99,08 %
29.10.2015 06:25 7,6 C 97 % 1014,9 hPa 0,0 l/m 0,0 km/h (0 Bft) S-SW 212 0 min 0,000 mm 0,0 UV-I 0 W/m 7,2 C 7,6 C 0,0 km/h (0 Bft) 100,00 %
29.10.2015 06:30 7,6 C 97 % 1015,0 hPa 0,0 l/m 0,0 km/h (0 Bft) S-SW 212 0 min 0,000 mm 0,0 UV-I 0 W/m 7,2 C 7,6 C 0,0 km/h (0 Bft) 100,00 %
29.10.2015 06:35 7,6 C 97 % 1015,1 hPa 0,0 l/m 0,0 km/h (0 Bft) S-SW 212 0 min 0,000 mm 0,0 UV-I 0 W/m 7,2 C 7,6 C 0,0 km/h (0 Bft) 100,00 %
29.10.2015 06:40 7,6 C 97 % 1015,1 hPa 0,0 l/m 0,0 km/h (0 Bft) S-SW 212 0 min 0,000 mm 0,0 UV-I 0 W/m 7,2 C 7,6 C 1,6 km/h (1 Bft) 100,00 %
29.10.2015 06:45 7,6 C 97 % 1015,2 hPa 0,0 l/m 0,1 km/h (0 Bft) S-SW 212 0 min 0,000 mm 0,0 UV-I 0 W/m 7,2 C 7,6 C 1,6 km/h (1 Bft) 97,56 %
29.10.2015 06:50 7,6 C 97 % 1015,2 hPa 0,0 l/m 0,5 km/h (0 Bft) S-SW 212 0 min 0,000 mm 0,0 UV-I 0 W/m 7,2 C 7,6 C 1,6 km/h (1 Bft) 99,17 %
29.10.2015 06:55 7,6 C 97 % 1015,3 hPa 0,0 l/m 1,1 km/h (1 Bft) S-SW 212 0 min 0,000 mm 0,0 UV-I 0 W/m 7,2 C 7,6 C 3,2 km/h (1 Bft) 100,00 %
29.10.2015 07:00 7,6 C 97 % 1015,3 hPa 0,0 l/m 0,4 km/h (0 Bft) S-SW 212 0 min 0,000 mm 0,0 UV-I 2 W/m 7,2 C 7,6 C 1,6 km/h (1 Bft) 99,19 %
29.10.2015 07:05 7,6 C 97 % 1015,4 hPa 0,0 l/m 1,3 km/h (1 Bft) W 261 0 min 0,000 mm 0,0 UV-I 6 W/m 7,2 C 7,6 C 3,2 km/h (1 Bft) 97,25 %
29.10.2015 07:10 7,6 C 97 % 1015,6 hPa 0,0 l/m 0,9 km/h (0 Bft) W 261 0 min 0,000 mm 0,0 UV-I 5 W/m 7,2 C 7,6 C 3,2 km/h (1 Bft) 100,00 %
29.10.2015 07:15 7,7 C 97 % 1015,7 hPa 0,0 l/m 1,0 km/h (0 Bft) W-SW 248 0 min 0,000 mm 0,0 UV-I 7 W/m 7,3 C 7,7 C 3,2 km/h (1 Bft) 99,11 %
29.10.2015 07:20 7,7 C 97 % 1015,7 hPa 0,0 l/m 1,8 km/h (1 Bft) W 275 0 min 0,000 mm 0,0 UV-I 10 W/m 7,3 C 7,7 C 4,8 km/h (1 Bft) 99,11 %
29.10.2015 07:25 7,8 C 97 % 1015,9 hPa 0,0 l/m 2,2 km/h (1 Bft) W 271 0 min 0,000 mm 0,0 UV-I 11 W/m 7,4 C 7,8 C 9,7 km/h (2 Bft) 100,00 %
29.10.2015 07:30 7,9 C 97 % 1015,9 hPa 0,0 l/m 2,1 km/h (1 Bft) SW 232 0 min 0,000 mm 0,0 UV-I 13 W/m 7,5 C 7,9 C 4,8 km/h (1 Bft) 100,00 %
29.10.2015 07:35 8,1 C 96 % 1016,1 hPa 0,0 l/m 2,7 km/h (1 Bft) W-NW 294 0 min 0,000 mm 0,0 UV-I 14 W/m 7,5 C 8,1 C 6,4 km/h (2 Bft) 97,62 %
29.10.2015 07:40 8,2 C 96 % 1016,1 hPa 0,0 l/m 3,8 km/h (1 Bft) SW 218 0 min 0,000 mm 0,0 UV-I 15 W/m 7,6 C 8,2 C 9,7 km/h (2 Bft) 100,00 %
29.10.2015 07:45 8,2 C 96 % 1016,1 hPa 0,0 l/m 2,2 km/h (1 Bft) SW 227 0 min 0,000 mm 0,0 UV-I 19 W/m 7,6 C 8,2 C 6,4 km/h (2 Bft) 100,00 %
29.10.2015 07:50 8,2 C 96 % 1016,2 hPa 0,0 l/m 1,7 km/h (1 Bft) W-NW 287 0 min 0,000 mm 0,0 UV-I 21 W/m 7,6 C 8,2 C 3,2 km/h (1 Bft) 99,10 %
29.10.2015 07:55 8,2 C 96 % 1016,3 hPa 0,0 l/m 2,3 km/h (1 Bft) W-NW 284 5 min 0,000 mm 0,0 UV-I 24 W/m 7,6 C 8,2 C 6,4 km/h (2 Bft) 99,21 %
29.10.2015 08:00 8,2 C 96 % 1016,4 hPa 0,0 l/m 1,7 km/h (1 Bft) W-NW 284 5 min 0,000 mm 0,0 UV-I 25 W/m 7,6 C 8,2 C 3,2 km/h (1 Bft) 100,00 %
29.10.2015 08:05 8,3 C 96 % 1016,4 hPa 0,0 l/m 1,7 km/h (1 Bft) W 265 5 min 0,000 mm 0,0 UV-I 30 W/m 7,7 C 8,3 C 4,8 km/h (1 Bft) 100,00 %
29.10.2015 08:20 8,3 C 95 % 1016,6 hPa 0,0 l/m 2,5 km/h (1 Bft) W 275 0 min 0,000 mm 0,0 UV-I 27 W/m 7,5 C 8,3 C 4,8 km/h (1 Bft) 99,72 %
29.10.2015 08:25 8,3 C 95 % 1016,6 hPa 0,0 l/m 2,2 km/h (1 Bft) W 277 0 min 0,000 mm 0,0 UV-I 28 W/m 7,5 C 8,3 C 4,8 km/h (1 Bft) 100,00 %
29.10.2015 08:30 8,3 C 95 % 1016,7 hPa 0,0 l/m 2,2 km/h (1 Bft) W 271 0 min 0,000 mm 0,0 UV-I 29 W/m 7,5 C 8,3 C 4,8 km/h (1 Bft) 100,00 %
29.10.2015 08:35 8,4 C 95 % 1016,8 hPa 0,0 l/m 3,0 km/h (1 Bft) SW 236 0 min 0,000 mm 0,0 UV-I 32 W/m 7,6 C 8,4 C 6,4 km/h (2 Bft) 100,00 %
29.10.2015 08:40 8,4 C 94 % 1016,8 hPa 0,0 l/m 2,6 km/h (1 Bft) W-NW 298 0 min 0,000 mm 0,0 UV-I 31 W/m 7,5 C 8,4 C 4,8 km/h (1 Bft) 100,00 %
29.10.2015 08:45 8,6 C 94 % 1016,8 hPa 0,0 l/m 1,7 km/h (1 Bft) W-NW 288 0 min 0,000 mm 0,0 UV-I 51 W/m 7,7 C 8,6 C 4,8 km/h (1 Bft) 99,12 %
29.10.2015 08:50 8,7 C 94 % 1016,8 hPa 0,0 l/m 1,2 km/h (1 Bft) W-NW 287 0 min 0,000 mm 0,0 UV-I 80 W/m 7,8 C 8,7 C 3,2 km/h (1 Bft) 97,32 %
29.10.2015 08:55 8,8 C 93 % 1016,8 hPa 0,0 l/m 2,4 km/h (1 Bft) W 277 0 min 0,000 mm 0,0 UV-I 63 W/m 7,7 C 8,8 C 6,4 km/h (2 Bft) 98,45 %
29.10.2015 09:00 9,1 C 93 % 1016,9 hPa 0,0 l/m 2,2 km/h (1 Bft) W-SW 256 0 min 0,025 mm 0,0 UV-I 55 W/m 8,0 C 9,1 C 4,8 km/h (1 Bft) 100,00 %
29.10.2015 09:05 9,3 C 92 % 1017,0 hPa 0,0 l/m 2,5 km/h (1 Bft) W-SW 251 0 min 0,000 mm 0,0 UV-I 80 W/m 8,1 C 9,3 C 6,4 km/h (2 Bft) 99,13 %
29.10.2015 09:10 9,3 C 92 % 1017,0 hPa 0,0 l/m 2,1 km/h (1 Bft) SW 235 0 min 0,000 mm 0,0 UV-I 79 W/m 8,1 C 9,3 C 3,2 km/h (1 Bft) 100,00 %
29.10.2015 09:15 9,1 C 92 % 1017,0 hPa 0,0 l/m 1,9 km/h (1 Bft) W 268 0 min 0,000 mm 0,0 UV-I 62 W/m 7,9 C 9,1 C 3,2 km/h (1 Bft) 98,37 %
29.10.2015 09:20 8,9 C 93 % 1017,0 hPa 0,0 l/m 1,8 km/h (1 Bft) W 266 0 min 0,000 mm 0,0 UV-I 55 W/m 7,8 C 8,9 C 4,8 km/h (1 Bft) 99,11 %
29.10.2015 09:25 8,8 C 93 % 1017,2 hPa 0,0 l/m 2,9 km/h (1 Bft) W 267 0 min 0,000 mm 0,0 UV-I 55 W/m 7,7 C 8,8 C 4,8 km/h (1 Bft) 99,19 %
29.10.2015 09:30 8,8 C 93 % 1017,2 hPa 0,0 l/m 2,5 km/h (1 Bft) N 5 0 min 0,000 mm 0,0 UV-I 57 W/m 7,7 C 8,8 C 4,8 km/h (1 Bft) 99,13 %
29.10.2015 09:35 8,8 C 93 % 1017,3 hPa 0,0 l/m 2,6 km/h (1 Bft) W-SW 251 0 min 0,000 mm 0,0 UV-I 47 W/m 7,7 C 8,8 C 4,8 km/h (1 Bft) 99,13 %
29.10.2015 09:40 8,8 C 93 % 1017,4 hPa 0,0 l/m 2,6 km/h (1 Bft) W-NW 300 0 min 0,000 mm 0,0 UV-I 48 W/m 7,7 C 8,8 C 4,8 km/h (1 Bft) 99,17 %
29.10.2015 09:45 8,8 C 93 % 1017,3 hPa 0,0 l/m 2,5 km/h (1 Bft) NW 321 0 min 0,000 mm 0,0 UV-I 61 W/m 7,7 C 8,8 C 6,4 km/h (2 Bft) 100,00 %
29.10.2015 09:50 8,8 C 93 % 1017,4 hPa 0,0 l/m 2,9 km/h (1 Bft) W-NW 289 0 min 0,000 mm 0,0 UV-I 61 W/m 7,7 C 8,8 C 6,4 km/h (2 Bft) 99,17 %
29.10.2015 09:55 8,8 C 93 % 1017,5 hPa 0,0 l/m 2,4 km/h (1 Bft) SW 226 0 min 0,000 mm 0,0 UV-I 68 W/m 7,7 C 8,8 C 6,4 km/h (2 Bft) 99,19 %
29.10.2015 10:00 8,9 C 92 % 1017,5 hPa 0,0 l/m 2,5 km/h (1 Bft) W-NW 286 0 min 0,026 mm 0,0 UV-I 72 W/m 7,7 C 8,9 C 4,8 km/h (1 Bft) 100,00 %
29.10.2015 10:05 8,9 C 93 % 1017,5 hPa 0,0 l/m 2,0 km/h (1 Bft) W 267 0 min 0,000 mm 0,0 UV-I 88 W/m 7,8 C 8,9 C 4,8 km/h (1 Bft) 99,10 %
29.10.2015 10:10 9,0 C 93 % 1017,5 hPa 0,0 l/m 1,2 km/h (1 Bft) W 275 0 min 0,000 mm 0,3 UV-I 98 W/m 7,9 C 9,0 C 3,2 km/h (1 Bft) 100,00 %
29.10.2015 10:15 9,2 C 92 % 1017,6 hPa 0,0 l/m 1,2 km/h (1 Bft) W 261 0 min 0,000 mm 0,0 UV-I 87 W/m 8,0 C 9,2 C 3,2 km/h (1 Bft) 99,11 %
29.10.2015 10:20 9,2 C 91 % 1017,6 hPa 0,0 l/m 1,6 km/h (1 Bft) W 272 0 min 0,000 mm 0,0 UV-I 72 W/m 7,8 C 9,2 C 4,8 km/h (1 Bft) 99,21 %
29.10.2015 10:25 9,2 C 91 % 1017,6 hPa 0,0 l/m 2,3 km/h (1 Bft) SW 236 0 min 0,000 mm 0,0 UV-I 74 W/m 7,8 C 9,2 C 4,8 km/h (1 Bft) 97,52 %
29.10.2015 10:30 9,2 C 91 % 1017,7 hPa 0,0 l/m 2,4 km/h (1 Bft) W 266 0 min 0,000 mm 0,0 UV-I 76 W/m 7,8 C 9,2 C 4,8 km/h (1 Bft) 99,15 %
29.10.2015 10:35 9,2 C 90 % 1017,7 hPa 0,0 l/m 2,8 km/h (1 Bft) W-NW 284 0 min 0,000 mm 0,0 UV-I 76 W/m 7,6 C 9,2 C 9,7 km/h (2 Bft) 99,08 %
29.10.2015 10:40 9,2 C 90 % 1017,8 hPa 0,0 l/m 2,8 km/h (1 Bft) W 274 0 min 0,000 mm 0,0 UV-I 86 W/m 7,6 C 9,2 C 4,8 km/h (1 Bft) 96,69 %
29.10.2015 10:45 9,3 C 90 % 1017,8 hPa 0,0 l/m 3,0 km/h (1 Bft) SW 227 0 min 0,000 mm 0,0 UV-I 88 W/m 7,7 C 9,3 C 4,8 km/h (1 Bft) 98,25 %
29.10.2015 10:50 9,3 C 90 % 1018,0 hPa 0,0 l/m 2,4 km/h (1 Bft) W 271 0 min 0,000 mm 0,4 UV-I 108 W/m 7,7 C 9,3 C 4,8 km/h (1 Bft) 100,00 %
29.10.2015 10:55 9,4 C 90 % 1018,0 hPa 0,0 l/m 2,3 km/h (1 Bft) W 278 0 min 0,000 mm 0,5 UV-I 113 W/m 7,8 C 9,4 C 4,8 km/h (1 Bft) 99,22 %
29.10.2015 11:00 9,4 C 89 % 1018,0 hPa 0,0 l/m 3,5 km/h (1 Bft) W-NW 294 0 min 0,051 mm 0,6 UV-I 122 W/m 7,7 C 9,4 C 6,4 km/h (2 Bft) 100,00 %
29.10.2015 11:05 9,4 C 90 % 1018,1 hPa 0,0 l/m 2,7 km/h (1 Bft) W-SW 252 0 min 0,000 mm 0,6 UV-I 120 W/m 7,8 C 9,4 C 4,8 km/h (1 Bft) 97,52 %
29.10.2015 11:10 9,7 C 89 % 1018,0 hPa 0,0 l/m 2,1 km/h (1 Bft) W 259 0 min 0,000 mm 0,7 UV-I 148 W/m 8,0 C 9,7 C 4,8 km/h (1 Bft) 100,00 %
29.10.2015 11:15 9,8 C 88 % 1018,0 hPa 0,0 l/m 4,1 km/h (1 Bft) W 281 0 min 0,000 mm 0,8 UV-I 198 W/m 7,9 C 9,8 C 8,0 km/h (2 Bft) 100,00 %
29.10.2015 11:20 9,8 C 88 % 1018,2 hPa 0,0 l/m 4,1 km/h (1 Bft) W 280 0 min 0,000 mm 0,7 UV-I 190 W/m 7,9 C 9,8 C 9,7 km/h (2 Bft) 99,17 %
29.10.2015 11:25 9,7 C 88 % 1018,1 hPa 0,0 l/m 3,7 km/h (1 Bft) W-SW 254 0 min 0,000 mm 0,6 UV-I 148 W/m 7,8 C 9,7 C 9,7 km/h (2 Bft) 97,30 %
29.10.2015 11:30 9,8 C 88 % 1018,1 hPa 0,0 l/m 1,6 km/h (1 Bft) W-SW 257 0 min 0,000 mm 0,6 UV-I 141 W/m 7,9 C 9,8 C 6,4 km/h (2 Bft) 100,00 %
29.10.2015 11:35 9,8 C 89 % 1018,1 hPa 0,0 l/m 2,6 km/h (1 Bft) N-NO 13 0 min 0,000 mm 0,7 UV-I 161 W/m 8,1 C 9,8 C 9,7 km/h (2 Bft) 99,19 %
29.10.2015 11:40 9,9 C 89 % 1018,2 hPa 0,0 l/m 2,1 km/h (1 Bft) W-NW 292 0 min 0,000 mm 1,0 UV-I 202 W/m 8,2 C 9,9 C 6,4 km/h (2 Bft) 100,00 %
29.10.2015 11:45 9,9 C 88 % 1018,2 hPa 0,0 l/m 2,3 km/h (1 Bft) SW 217 0 min 0,000 mm 0,9 UV-I 181 W/m 8,0 C 9,9 C 8,0 km/h (2 Bft) 100,00 %
29.10.2015 11:50 9,9 C 88 % 1018,3 hPa 0,0 l/m 1,2 km/h (1 Bft) N-NW 334 0 min 0,000 mm 0,9 UV-I 165 W/m 8,0 C 9,9 C 4,8 km/h (1 Bft) 100,00 %
29.10.2015 11:55 9,9 C 88 % 1018,2 hPa 0,0 l/m 3,4 km/h (1 Bft) W 276 0 min 0,000 mm 0,9 UV-I 173 W/m 8,0 C 9,9 C 6,4 km/h (2 Bft) 100,00 %
29.10.2015 12:00 10,0 C 87 % 1018,3 hPa 0,0 l/m 3,5 km/h (1 Bft) SW 221 0 min 0,076 mm 1,0 UV-I 214 W/m 7,9 C 10,0 C 9,7 km/h (2 Bft) 99,19 %
29.10.2015 12:05 10,1 C 86 % 1018,4 hPa 0,0 l/m 3,6 km/h (1 Bft) S-SW 211 0 min 0,000 mm 0,9 UV-I 183 W/m 7,9 C 10,1 C 11,3 km/h (2 Bft) 100,00 %
29.10.2015 12:10 10,1 C 87 % 1018,4 hPa 0,0 l/m 3,0 km/h (1 Bft) W-NW 287 0 min 0,000 mm 0,8 UV-I 162 W/m 8,0 C 10,1 C 6,4 km/h (2 Bft) 100,00 %
29.10.2015 12:15 10,1 C 86 % 1018,4 hPa 0,0 l/m 2,6 km/h (1 Bft) W 279 0 min 0,000 mm 0,7 UV-I 152 W/m 7,9 C 10,1 C 6,4 km/h (2 Bft) 99,11 %
29.10.2015 12:20 10,1 C 86 % 1018,4 hPa 0,0 l/m 3,2 km/h (1 Bft) O-NO 62 0 min 0,000 mm 1,0 UV-I 199 W/m 7,9 C 10,1 C 6,4 km/h (2 Bft) 99,10 %
29.10.2015 12:25 10,1 C 86 % 1018,4 hPa 0,0 l/m 2,8 km/h (1 Bft) W 268 0 min 0,000 mm 0,8 UV-I 154 W/m 7,9 C 10,1 C 6,4 km/h (2 Bft) 100,00 %
29.10.2015 12:30 10,2 C 86 % 1018,4 hPa 0,0 l/m 2,3 km/h (1 Bft) W-NW 297 0 min 0,000 mm 0,9 UV-I 190 W/m 8,0 C 10,2 C 6,4 km/h (2 Bft) 100,00 %
29.10.2015 12:35 10,2 C 86 % 1018,5 hPa 0,0 l/m 4,1 km/h (1 Bft) W 262 0 min 0,000 mm 0,8 UV-I 177 W/m 8,0 C 10,2 C 9,7 km/h (2 Bft) 100,00 %
29.10.2015 12:40 10,2 C 85 % 1018,5 hPa 0,0 l/m 3,2 km/h (1 Bft) W-NW 295 0 min 0,000 mm 0,7 UV-I 135 W/m 7,8 C 10,2 C 6,4 km/h (2 Bft) 98,26 %
29.10.2015 12:45 10,1 C 86 % 1018,6 hPa 0,0 l/m 3,4 km/h (1 Bft) S-SW 200 0 min 0,000 mm 0,7 UV-I 154 W/m 7,9 C 10,1 C 9,7 km/h (2 Bft) 100,00 %
29.10.2015 12:50 10,2 C 87 % 1018,7 hPa 0,0 l/m 2,1 km/h (1 Bft) W 260 0 min 0,000 mm 0,7 UV-I 137 W/m 8,1 C 10,2 C 9,7 km/h (2 Bft) 100,00 %
29.10.2015 12:55 10,1 C 85 % 1018,7 hPa 0,0 l/m 3,4 km/h (1 Bft) W 265 0 min 0,000 mm 0,6 UV-I 123 W/m 7,7 C 10,1 C 6,4 km/h (2 Bft) 98,26 %
29.10.2015 13:00 10,1 C 86 % 1018,7 hPa 0,0 l/m 2,5 km/h (1 Bft) W 262 0 min 0,076 mm 0,6 UV-I 127 W/m 7,9 C 10,1 C 6,4 km/h (2 Bft) 100,00 %
29.10.2015 13:05 10,2 C 87 % 1018,7 hPa 0,0 l/m 2,7 km/h (1 Bft) W-NW 298 0 min 0,000 mm 0,6 UV-I 132 W/m 8,1 C 10,2 C 4,8 km/h (1 Bft) 97,58 %
29.10.2015 13:10 10,3 C 86 % 1018,7 hPa 0,0 l/m 2,8 km/h (1 Bft) W 277 0 min 0,000 mm 0,6 UV-I 133 W/m 8,1 C 10,3 C 6,4 km/h (2 Bft) 99,15 %
29.10.2015 13:15 10,3 C 85 % 1018,8 hPa 0,0 l/m 2,4 km/h (1 Bft) NW 304 0 min 0,000 mm 0,6 UV-I 117 W/m 7,9 C 10,3 C 6,4 km/h (2 Bft) 98,26 %
29.10.2015 13:20 10,2 C 85 % 1018,9 hPa 0,0 l/m 2,3 km/h (1 Bft) W 275 0 min 0,000 mm 0,6 UV-I 75 W/m 7,8 C 10,2 C 4,8 km/h (1 Bft) 98,26 %
29.10.2015 13:25 10,1 C 85 % 1018,9 hPa 0,0 l/m 3,3 km/h (1 Bft) W-NW 296 0 min 0,000 mm 0,5 UV-I 70 W/m 7,7 C 10,1 C 9,7 km/h (2 Bft) 98,25 %
29.10.2015 13:30 10,1 C 86 % 1018,9 hPa 0,0 l/m 2,8 km/h (1 Bft) W-SW 255 0 min 0,000 mm 0,5 UV-I 73 W/m 7,9 C 10,1 C 8,0 km/h (2 Bft) 99,19 %
29.10.2015 13:35 10,1 C 86 % 1018,9 hPa 0,0 l/m 1,7 km/h (1 Bft) N-NW 333 0 min 0,000 mm 0,5 UV-I 77 W/m 7,9 C 10,1 C 6,4 km/h (2 Bft) 100,00 %
29.10.2015 13:40 10,1 C 87 % 1019,0 hPa 0,0 l/m 2,0 km/h (1 Bft) W-SW 238 0 min 0,000 mm 0,4 UV-I 86 W/m 8,0 C 10,1 C 4,8 km/h (1 Bft) 99,12 %
29.10.2015 13:45 10,2 C 86 % 1019,0 hPa 0,0 l/m 1,5 km/h (1 Bft) W-SW 249 0 min 0,000 mm 0,5 UV-I 116 W/m 8,0 C 10,2 C 4,8 km/h (1 Bft) 99,11 %
29.10.2015 13:50 10,2 C 85 % 1019,0 hPa 0,0 l/m 2,2 km/h (1 Bft) SW 221 0 min 0,000 mm 0,5 UV-I 141 W/m 7,8 C 10,2 C 6,4 km/h (2 Bft) 100,00 %
29.10.2015 13:55 10,3 C 85 % 1019,0 hPa 0,0 l/m 2,6 km/h (1 Bft) W-NW 302 0 min 0,000 mm 0,6 UV-I 169 W/m 7,9 C 10,3 C 8,0 km/h (2 Bft) 99,21 %
29.10.2015 14:00 10,3 C 85 % 1019,1 hPa 0,0 l/m 3,2 km/h (1 Bft) NO 40 0 min 0,051 mm 0,6 UV-I 159 W/m 7,9 C 10,3 C 6,4 km/h (2 Bft) 100,00 %
29.10.2015 14:05 10,3 C 84 % 1019,1 hPa 0,0 l/m 4,0 km/h (1 Bft) W 269 0 min 0,000 mm 0,7 UV-I 184 W/m 7,7 C 10,3 C 9,7 km/h (2 Bft) 98,29 %
29.10.2015 14:10 10,4 C 85 % 1019,1 hPa 0,0 l/m 2,9 km/h (1 Bft) W 274 0 min 0,000 mm 0,5 UV-I 164 W/m 8,0 C 10,4 C 9,7 km/h (2 Bft) 100,00 %
29.10.2015 14:15 10,4 C 84 % 1019,1 hPa 0,0 l/m 2,9 km/h (1 Bft) W-NW 299 0 min 0,000 mm 0,2 UV-I 165 W/m 7,8 C 10,4 C 6,4 km/h (2 Bft) 100,00 %
29.10.2015 14:20 10,4 C 83 % 1019,3 hPa 0,0 l/m 3,4 km/h (1 Bft) W-SW 250 0 min 0,000 mm 0,4 UV-I 164 W/m 7,6 C 10,4 C 6,4 km/h (2 Bft) 99,19 %
29.10.2015 14:25 10,4 C 84 % 1019,3 hPa 0,0 l/m 3,5 km/h (1 Bft) W 265 0 min 0,000 mm 0,0 UV-I 140 W/m 7,8 C 10,4 C 8,0 km/h (2 Bft) 100,00 %
29.10.2015 14:30 10,6 C 84 % 1019,3 hPa 0,0 l/m 2,0 km/h (1 Bft) NW 317 0 min 0,000 mm 0,0 UV-I 134 W/m 8,0 C 10,6 C 8,0 km/h (2 Bft) 98,37 %
29.10.2015 14:35 10,5 C 85 % 1019,4 hPa 0,0 l/m 3,1 km/h (1 Bft) N-NW 339 0 min 0,000 mm 0,0 UV-I 129 W/m 8,1 C 10,5 C 6,4 km/h (2 Bft) 99,11 %
29.10.2015 14:40 10,3 C 84 % 1019,5 hPa 0,0 l/m 3,0 km/h (1 Bft) N 5 0 min 0,000 mm 0,0 UV-I 77 W/m 7,7 C 10,3 C 6,4 km/h (2 Bft) 100,00 %
29.10.2015 14:45 10,1 C 85 % 1019,5 hPa 0,0 l/m 2,3 km/h (1 Bft) N 5 0 min 0,000 mm 0,0 UV-I 75 W/m 7,7 C 10,1 C 6,4 km/h (2 Bft) 100,00 %
29.10.2015 14:50 10,1 C 85 % 1019,6 hPa 0,0 l/m 2,1 km/h (1 Bft) NW 324 0 min 0,000 mm 0,0 UV-I 84 W/m 7,7 C 10,1 C 4,8 km/h (1 Bft) 98,26 %
29.10.2015 14:55 10,1 C 86 % 1019,6 hPa 0,0 l/m 1,6 km/h (1 Bft) N 9 0 min 0,000 mm 0,0 UV-I 78 W/m 7,9 C 10,1 C 4,8 km/h (1 Bft) 99,12 %
29.10.2015 15:00 10,1 C 86 % 1019,6 hPa 0,0 l/m 1,9 km/h (1 Bft) N 5 0 min 0,051 mm 0,0 UV-I 70 W/m 7,9 C 10,1 C 4,8 km/h (1 Bft) 100,00 %
29.10.2015 15:05 10,0 C 85 % 1019,6 hPa 0,0 l/m 1,7 km/h (1 Bft) N 355 0 min 0,000 mm 0,0 UV-I 57 W/m 7,6 C 10,0 C 4,8 km/h (1 Bft) 99,17 %
29.10.2015 15:10 10,0 C 86 % 1019,7 hPa 0,0 l/m 1,2 km/h (1 Bft) N-NW 329 0 min 0,000 mm 0,0 UV-I 44 W/m 7,8 C 10,0 C 3,2 km/h (1 Bft) 99,15 %
29.10.2015 15:15 9,9 C 86 % 1019,8 hPa 0,0 l/m 1,0 km/h (0 Bft) N-NW 346 0 min 0,000 mm 0,0 UV-I 40 W/m 7,7 C 9,9 C 3,2 km/h (1 Bft) 100,00 %
29.10.2015 15:20 9,9 C 86 % 1019,8 hPa 0,0 l/m 1,4 km/h (1 Bft) N 11 0 min 0,000 mm 0,0 UV-I 38 W/m 7,7 C 9,9 C 3,2 km/h (1 Bft) 100,00 %
29.10.2015 15:25 9,9 C 87 % 1019,9 hPa 0,0 l/m 1,2 km/h (1 Bft) N 11 0 min 0,000 mm 0,0 UV-I 44 W/m 7,8 C 9,9 C 3,2 km/h (1 Bft) 97,44 %
29.10.2015 15:30 9,9 C 86 % 1019,9 hPa 0,0 l/m 1,6 km/h (1 Bft) N-NW 345 0 min 0,000 mm 0,0 UV-I 41 W/m 7,7 C 9,9 C 4,8 km/h (1 Bft) 100,00 %
29.10.2015 15:35 9,9 C 86 % 1020,0 hPa 0,0 l/m 0,6 km/h (0 Bft) N-NW 345 0 min 0,000 mm 0,0 UV-I 36 W/m 7,7 C 9,9 C 1,6 km/h (1 Bft) 99,15 %
29.10.2015 15:40 9,9 C 87 % 1020,1 hPa 0,0 l/m 0,4 km/h (0 Bft) N-NW 345 0 min 0,000 mm 0,0 UV-I 27 W/m 7,8 C 9,9 C 1,6 km/h (1 Bft) 99,17 %
29.10.2015 15:45 9,9 C 87 % 1020,1 hPa 0,0 l/m 1,2 km/h (1 Bft) N 5 0 min 0,000 mm 0,0 UV-I 22 W/m 7,8 C 9,9 C 3,2 km/h (1 Bft) 97,46 %
29.10.2015 15:50 9,9 C 88 % 1020,1 hPa 0,0 l/m 1,7 km/h (1 Bft) N 5 0 min 0,000 mm 0,0 UV-I 22 W/m 8,0 C 9,9 C 4,8 km/h (1 Bft) 96,67 %
29.10.2015 15:55 9,8 C 87 % 1020,1 hPa 0,0 l/m 0,7 km/h (0 Bft) N 9 0 min 0,000 mm 0,0 UV-I 23 W/m 7,7 C 9,8 C 3,2 km/h (1 Bft) 100,00 %
29.10.2015 16:00 9,8 C 86 % 1020,2 hPa 0,0 l/m 0,4 km/h (0 Bft) N 9 0 min 0,025 mm 0,0 UV-I 19 W/m 7,6 C 9,8 C 1,6 km/h (1 Bft) 98,31 %
29.10.2015 16:05 9,8 C 87 % 1020,3 hPa 0,0 l/m 0,7 km/h (0 Bft) N 9 0 min 0,000 mm 0,0 UV-I 16 W/m 7,7 C 9,8 C 3,2 km/h (1 Bft) 99,17 %
29.10.2015 16:10 9,8 C 87 % 1020,3 hPa 0,0 l/m 0,5 km/h (0 Bft) N 9 0 min 0,000 mm 0,0 UV-I 14 W/m 7,7 C 9,8 C 1,6 km/h (1 Bft) 99,15 %
29.10.2015 16:15 9,7 C 87 % 1020,4 hPa 0,0 l/m 0,6 km/h (0 Bft) N 9 0 min 0,000 mm 0,0 UV-I 13 W/m 7,6 C 9,7 C 1,6 km/h (1 Bft) 98,32 %
29.10.2015 16:20 9,8 C 88 % 1020,5 hPa 0,0 l/m 1,1 km/h (1 Bft) N-NO 13 0 min 0,000 mm 0,0 UV-I 13 W/m 7,9 C 9,8 C 3,2 km/h (1 Bft) 99,15 %
29.10.2015 16:25 9,7 C 88 % 1020,5 hPa 0,0 l/m 1,2 km/h (1 Bft) N-NO 19 0 min 0,000 mm 0,0 UV-I 11 W/m 7,8 C 9,7 C 3,2 km/h (1 Bft) 100,00 %
29.10.2015 16:30 9,7 C 87 % 1020,6 hPa 0,0 l/m 0,6 km/h (0 Bft) N-NO 19 0 min 0,000 mm 0,0 UV-I 8 W/m 7,6 C 9,7 C 3,2 km/h (1 Bft) 97,46 %
29.10.2015 16:35 9,7 C 88 % 1020,6 hPa 0,0 l/m 0,4 km/h (0 Bft) N-NO 19 0 min 0,000 mm 0,0 UV-I 6 W/m 7,8 C 9,7 C 3,2 km/h (1 Bft) 99,15 %
29.10.2015 16:40 9,7 C 88 % 1020,7 hPa 0,0 l/m 0,5 km/h (0 Bft) N-NO 19 0 min 0,000 mm 0,0 UV-I 5 W/m 7,8 C 9,7 C 1,6 km/h (1 Bft) 98,11 %
29.10.2015 16:45 9,6 C 88 % 1020,8 hPa 0,0 l/m 0,3 km/h (0 Bft) N-NO 19 0 min 0,000 mm 0,0 UV-I 5 W/m 7,7 C 9,6 C 1,6 km/h (1 Bft) 100,00 %
29.10.2015 16:50 9,6 C 89 % 1020,9 hPa 0,0 l/m 0,6 km/h (0 Bft) N-NO 19 0 min 0,000 mm 0,0 UV-I 0 W/m 7,9 C 9,6 C 1,6 km/h (1 Bft) 99,17 %
29.10.2015 16:55 9,6 C 88 % 1020,8 hPa 0,0 l/m 0,5 km/h (0 Bft) N-NO 19 0 min 0,000 mm 0,0 UV-I 0 W/m 7,7 C 9,6 C 1,6 km/h (1 Bft) 98,31 %
29.10.2015 17:00 9,5 C 89 % 1020,9 hPa 0,0 l/m 0,7 km/h (0 Bft) N-NO 19 0 min 0,000 mm 0,0 UV-I 0 W/m 7,8 C 9,5 C 3,2 km/h (1 Bft) 100,00 %
29.10.2015 17:05 9,5 C 89 % 1020,9 hPa 0,0 l/m 0,3 km/h (0 Bft) N-NO 19 0 min 0,000 mm 0,0 UV-I 0 W/m 7,8 C 9,5 C 1,6 km/h (1 Bft) 99,19 %
29.10.2015 17:10 9,4 C 89 % 1021,0 hPa 0,0 l/m 0,2 km/h (0 Bft) N-NO 19 0 min 0,000 mm 0,0 UV-I 0 W/m 7,7 C 9,4 C 1,6 km/h (1 Bft) 100,00 %
29.10.2015 17:15 9,4 C 88 % 1021,0 hPa 0,0 l/m 0,4 km/h (0 Bft) N-NO 19 0 min 0,000 mm 0,0 UV-I 0 W/m 7,5 C 9,4 C 3,2 km/h (1 Bft) 100,00 %
29.10.2015 17:20 9,4 C 89 % 1021,1 hPa 0,0 l/m 0,0 km/h (0 Bft) N-NO 19 0 min 0,000 mm 0,0 UV-I 0 W/m 7,7 C 9,4 C 0,0 km/h (0 Bft) 97,46 %
29.10.2015 17:25 9,4 C 88 % 1021,2 hPa 0,0 l/m 0,0 km/h (0 Bft) N-NO 19 0 min 0,000 mm 0,0 UV-I 0 W/m 7,5 C 9,4 C 0,0 km/h (0 Bft) 100,00 %
29.10.2015 17:30 9,4 C 89 % 1021,3 hPa 0,0 l/m 0,0 km/h (0 Bft) N-NO 19 0 min 0,000 mm 0,0 UV-I 0 W/m 7,7 C 9,4 C 0,0 km/h (0 Bft) 99,15 %
29.10.2015 17:35 9,4 C 90 % 1021,3 hPa 0,0 l/m 0,1 km/h (0 Bft) N-NO 19 0 min 0,000 mm 0,0 UV-I 0 W/m 7,8 C 9,4 C 1,6 km/h (1 Bft) 98,31 %
29.10.2015 17:40 9,4 C 90 % 1021,3 hPa 0,0 l/m 1,0 km/h (0 Bft) N-NO 19 0 min 0,000 mm 0,0 UV-I 0 W/m 7,8 C 9,4 C 3,2 km/h (1 Bft) 96,58 %
29.10.2015 17:45 9,3 C 90 % 1021,4 hPa 0,0 l/m 0,5 km/h (0 Bft) N-NO 21 0 min 0,000 mm 0,0 UV-I 0 W/m 7,7 C 9,3 C 3,2 km/h (1 Bft) 96,61 %
29.10.2015 17:50 9,3 C 89 % 1021,5 hPa 0,0 l/m 0,0 km/h (0 Bft) N-NO 21 0 min 0,000 mm 0,0 UV-I 0 W/m 7,6 C 9,3 C 0,0 km/h (0 Bft) 99,15 %
29.10.2015 17:55 9,3 C 90 % 1021,6 hPa 0,0 l/m 0,0 km/h (0 Bft) N-NO 21 0 min 0,000 mm 0,0 UV-I 0 W/m 7,7 C 9,3 C 1,6 km/h (1 Bft) 100,00 %
29.10.2015 18:00 9,3 C 90 % 1021,7 hPa 0,0 l/m 0,0 km/h (0 Bft) N-NO 21 0 min 0,000 mm 0,0 UV-I 0 W/m 7,7 C 9,3 C 1,6 km/h (1 Bft) 96,61 %
29.10.2015 18:05 9,3 C 90 % 1021,8 hPa 0,0 l/m 0,1 km/h (0 Bft) N-NO 21 0 min 0,000 mm 0,0 UV-I 0 W/m 7,7 C 9,3 C 1,6 km/h (1 Bft) 100,00 %
29.10.2015 18:10 9,3 C 89 % 1021,8 hPa 0,0 l/m 0,0 km/h (0 Bft) N-NO 21 0 min 0,000 mm 0,0 UV-I 0 W/m 7,6 C 9,3 C 0,0 km/h (0 Bft) 99,17 %
29.10.2015 18:15 9,3 C 89 % 1021,9 hPa 0,0 l/m 0,5 km/h (0 Bft) N-NW 333 0 min 0,000 mm 0,0 UV-I 0 W/m 7,6 C 9,3 C 3,2 km/h (1 Bft) 97,46 %
29.10.2015 18:20 9,3 C 89 % 1021,9 hPa 0,0 l/m 0,1 km/h (0 Bft) N-NW 333 0 min 0,000 mm 0,0 UV-I 0 W/m 7,6 C 9,3 C 1,6 km/h (1 Bft) 99,17 %
29.10.2015 18:25 9,3 C 88 % 1022,0 hPa 0,0 l/m 0,0 km/h (0 Bft) N-NW 333 0 min 0,000 mm 0,0 UV-I 0 W/m 7,4 C 9,3 C 1,6 km/h (1 Bft) 100,00 %
29.10.2015 18:30 9,3 C 89 % 1022,0 hPa 0,0 l/m 0,3 km/h (0 Bft) NW 315 0 min 0,000 mm 0,0 UV-I 0 W/m 7,6 C 9,3 C 3,2 km/h (1 Bft) 100,00 %
29.10.2015 18:35 9,3 C 88 % 1022,1 hPa 0,0 l/m 0,0 km/h (0 Bft) NW 315 0 min 0,000 mm 0,0 UV-I 0 W/m 7,4 C 9,3 C 0,0 km/h (0 Bft) 99,15 %
29.10.2015 18:40 9,2 C 89 % 1022,1 hPa 0,0 l/m 0,0 km/h (0 Bft) NW 315 0 min 0,000 mm 0,0 UV-I 0 W/m 7,5 C 9,2 C 0,0 km/h (0 Bft) 99,15 %
29.10.2015 18:45 9,2 C 90 % 1022,1 hPa 0,0 l/m 0,0 km/h (0 Bft) NW 315 0 min 0,000 mm 0,0 UV-I 0 W/m 7,6 C 9,2 C 0,0 km/h (0 Bft) 96,58 %
29.10.2015 18:50 9,2 C 90 % 1022,2 hPa 0,0 l/m 0,0 km/h (0 Bft) NW 315 0 min 0,000 mm 0,0 UV-I 0 W/m 7,6 C 9,2 C 0,0 km/h (0 Bft) 100,00 %
29.10.2015 18:55 9,1 C 90 % 1022,4 hPa 0,0 l/m 0,2 km/h (0 Bft) NW 315 0 min 0,000 mm 0,0 UV-I 0 W/m 7,5 C 9,1 C 1,6 km/h (1 Bft) 98,31 %
29.10.2015 19:00 9,1 C 90 % 1022,4 hPa 0,0 l/m 0,0 km/h (0 Bft) NW 315 0 min 0,000 mm 0,0 UV-I 0 W/m 7,5 C 9,1 C 0,0 km/h (0 Bft) 99,15 %
29.10.2015 19:05 9,2 C 89 % 1022,3 hPa 0,0 l/m 0,3 km/h (0 Bft) NW 310 0 min 0,000 mm 0,0 UV-I 0 W/m 7,5 C 9,2 C 3,2 km/h (1 Bft) 98,33 %
29.10.2015 19:10 9,2 C 89 % 1022,4 hPa 0,0 l/m 1,6 km/h (1 Bft) W 260 0 min 0,000 mm 0,0 UV-I 0 W/m 7,5 C 9,2 C 4,8 km/h (1 Bft) 100,00 %
29.10.2015 19:15 9,2 C 89 % 1022,4 hPa 0,0 l/m 0,7 km/h (0 Bft) W 260 0 min 0,000 mm 0,0 UV-I 0 W/m 7,5 C 9,2 C 3,2 km/h (1 Bft) 98,29 %
29.10.2015 19:20 9,2 C 89 % 1022,4 hPa 0,0 l/m 0,5 km/h (0 Bft) W 260 0 min 0,000 mm 0,0 UV-I 0 W/m 7,5 C 9,2 C 1,6 km/h (1 Bft) 99,15 %
29.10.2015 19:25 9,2 C 90 % 1022,5 hPa 0,0 l/m 0,6 km/h (0 Bft) W 260 0 min 0,000 mm 0,0 UV-I 0 W/m 7,6 C 9,2 C 3,2 km/h (1 Bft) 100,00 %
29.10.2015 19:30 9,2 C 90 % 1022,5 hPa 0,0 l/m 0,5 km/h (0 Bft) W 259 0 min 0,000 mm 0,0 UV-I 0 W/m 7,6 C 9,2 C 1,6 km/h (1 Bft) 99,15 %
29.10.2015 19:35 9,2 C 89 % 1022,6 hPa 0,0 l/m 0,3 km/h (0 Bft) W-SW 257 0 min 0,000 mm 0,0 UV-I 0 W/m 7,5 C 9,2 C 1,6 km/h (1 Bft) 100,00 %
29.10.2015 19:40 9,2 C 90 % 1022,7 hPa 0,0 l/m 0,3 km/h (0 Bft) W-SW 257 0 min 0,000 mm 0,0 UV-I 0 W/m 7,6 C 9,2 C 1,6 km/h (1 Bft) 99,15 %
29.10.2015 19:45 9,2 C 90 % 1022,7 hPa 0,0 l/m 0,2 km/h (0 Bft) W-SW 257 0 min 0,000 mm 0,0 UV-I 0 W/m 7,6 C 9,2 C 1,6 km/h (1 Bft) 99,15 %
29.10.2015 19:50 9,2 C 90 % 1022,7 hPa 0,0 l/m 0,5 km/h (0 Bft) W-SW 257 0 min 0,000 mm 0,0 UV-I 0 W/m 7,6 C 9,2 C 3,2 km/h (1 Bft) 98,11 %
29.10.2015 19:55 9,3 C 89 % 1022,7 hPa 0,0 l/m 0,2 km/h (0 Bft) W-SW 257 0 min 0,000 mm 0,0 UV-I 0 W/m 7,6 C 9,3 C 1,6 km/h (1 Bft) 97,44 %
29.10.2015 20:00 9,3 C 89 % 1022,8 hPa 0,0 l/m 0,2 km/h (0 Bft) W-SW 257 0 min 0,000 mm 0,0 UV-I 0 W/m 7,6 C 9,3 C 1,6 km/h (1 Bft) 100,00 %
29.10.2015 20:05 9,3 C 89 % 1022,9 hPa 0,0 l/m 0,1 km/h (0 Bft) W-SW 257 0 min 0,000 mm 0,0 UV-I 0 W/m 7,6 C 9,3 C 1,6 km/h (1 Bft) 100,00 %
29.10.2015 20:10 9,3 C 89 % 1022,9 hPa 0,0 l/m 0,0 km/h (0 Bft) W-SW 257 0 min 0,000 mm 0,0 UV-I 0 W/m 7,6 C 9,3 C 0,0 km/h (0 Bft) 99,15 %
29.10.2015 20:15 9,2 C 89 % 1023,0 hPa 0,0 l/m 0,0 km/h (0 Bft) W-SW 257 0 min 0,000 mm 0,0 UV-I 0 W/m 7,5 C 9,2 C 0,0 km/h (0 Bft) 100,00 %
29.10.2015 20:20 9,2 C 89 % 1023,0 hPa 0,0 l/m 0,0 km/h (0 Bft) W-SW 257 0 min 0,000 mm 0,0 UV-I 0 W/m 7,5 C 9,2 C 1,6 km/h (1 Bft) 99,15 %
29.10.2015 20:25 9,2 C 89 % 1023,1 hPa 0,0 l/m 0,1 km/h (0 Bft) W-SW 257 0 min 0,000 mm 0,0 UV-I 0 W/m 7,5 C 9,2 C 1,6 km/h (1 Bft) 97,25 %
29.10.2015 20:30 9,2 C 89 % 1023,1 hPa 0,0 l/m 0,5 km/h (0 Bft) W-SW 257 0 min 0,000 mm 0,0 UV-I 0 W/m 7,5 C 9,2 C 3,2 km/h (1 Bft) 99,15 %
29.10.2015 20:35 9,2 C 90 % 1023,1 hPa 0,0 l/m 0,0 km/h (0 Bft) W-SW 257 0 min 0,000 mm 0,0 UV-I 0 W/m 7,6 C 9,2 C 0,0 km/h (0 Bft) 99,15 %
29.10.2015 20:40 9,2 C 90 % 1023,2 hPa 0,0 l/m 0,8 km/h (0 Bft) W-SW 240 0 min 0,000 mm 0,0 UV-I 0 W/m 7,6 C 9,2 C 3,2 km/h (1 Bft) 95,76 %
29.10.2015 20:45 9,2 C 90 % 1023,1 hPa 0,0 l/m 0,6 km/h (0 Bft) W-SW 240 0 min 0,000 mm 0,0 UV-I 0 W/m 7,6 C 9,2 C 1,6 km/h (1 Bft) 97,52 %
29.10.2015 20:50 9,2 C 90 % 1023,3 hPa 0,0 l/m 0,0 km/h (0 Bft) W-SW 240 0 min 0,000 mm 0,0 UV-I 0 W/m 7,6 C 9,2 C 1,6 km/h (1 Bft) 98,33 %
29.10.2015 20:55 9,2 C 89 % 1023,3 hPa 0,0 l/m 0,0 km/h (0 Bft) W-SW 240 0 min 0,000 mm 0,0 UV-I 0 W/m 7,5 C 9,2 C 0,0 km/h (0 Bft) 99,11 %
29.10.2015 21:00 9,2 C 90 % 1023,3 hPa 0,0 l/m 0,5 km/h (0 Bft) W-SW 240 0 min 0,000 mm 0,0 UV-I 0 W/m 7,6 C 9,2 C 1,6 km/h (1 Bft) 100,00 %
29.10.2015 21:05 9,1 C 90 % 1023,4 hPa 0,0 l/m 0,5 km/h (0 Bft) W-SW 240 0 min 0,000 mm 0,0 UV-I 0 W/m 7,5 C 9,1 C 1,6 km/h (1 Bft) 99,15 %
29.10.2015 21:10 9,1 C 90 % 1023,3 hPa 0,0 l/m 0,0 km/h (0 Bft) W-SW 240 0 min 0,000 mm 0,0 UV-I 0 W/m 7,5 C 9,1 C 1,6 km/h (1 Bft) 100,00 %
29.10.2015 21:15 9,0 C 90 % 1023,4 hPa 0,0 l/m 0,0 km/h (0 Bft) W-SW 240 0 min 0,000 mm 0,0 UV-I 0 W/m 7,4 C 9,0 C 0,0 km/h (0 Bft) 99,15 %
29.10.2015 21:20 9,0 C 91 % 1023,4 hPa 0,0 l/m 0,0 km/h (0 Bft) W-SW 240 0 min 0,000 mm 0,0 UV-I 0 W/m 7,6 C 9,0 C 0,0 km/h (0 Bft) 99,15 %
29.10.2015 21:25 8,9 C 91 % 1023,3 hPa 0,0 l/m 0,0 km/h (0 Bft) W-SW 240 0 min 0,000 mm 0,0 UV-I 0 W/m 7,5 C 8,9 C 0,0 km/h (0 Bft) 98,17 %
29.10.2015 21:30 8,9 C 90 % 1023,3 hPa 0,0 l/m 0,2 km/h (0 Bft) W-NW 300 0 min 0,000 mm 0,0 UV-I 0 W/m 7,4 C 8,9 C 1,6 km/h (1 Bft) 97,44 %
29.10.2015 21:35 9,0 C 90 % 1023,3 hPa 0,0 l/m 0,2 km/h (0 Bft) W-NW 300 0 min 0,000 mm 0,0 UV-I 0 W/m 7,4 C 9,0 C 1,6 km/h (1 Bft) 99,15 %
29.10.2015 21:40 8,9 C 90 % 1023,3 hPa 0,0 l/m 0,3 km/h (0 Bft) NW 325 0 min 0,000 mm 0,0 UV-I 0 W/m 7,4 C 8,9 C 3,2 km/h (1 Bft) 98,31 %
29.10.2015 21:45 8,9 C 89 % 1023,4 hPa 0,0 l/m 0,0 km/h (0 Bft) NW 325 0 min 0,000 mm 0,0 UV-I 0 W/m 7,2 C 8,9 C 1,6 km/h (1 Bft) 99,15 %
29.10.2015 21:50 8,9 C 90 % 1023,4 hPa 0,0 l/m 0,0 km/h (0 Bft) NW 325 0 min 0,000 mm 0,0 UV-I 0 W/m 7,4 C 8,9 C 0,0 km/h (0 Bft) 99,15 %
29.10.2015 21:55 8,9 C 90 % 1023,5 hPa 0,0 l/m 0,0 km/h (0 Bft) NW 325 0 min 0,000 mm 0,0 UV-I 0 W/m 7,4 C 8,9 C 1,6 km/h (1 Bft) 98,29 %
29.10.2015 22:00 8,8 C 91 % 1023,5 hPa 0,0 l/m 0,1 km/h (0 Bft) NW 325 0 min 0,000 mm 0,0 UV-I 0 W/m 7,4 C 8,8 C 1,6 km/h (1 Bft) 99,15 %
29.10.2015 22:05 8,8 C 91 % 1023,5 hPa 0,0 l/m 0,1 km/h (0 Bft) NW 325 0 min 0,000 mm 0,0 UV-I 0 W/m 7,4 C 8,8 C 1,6 km/h (1 Bft) 100,00 %
29.10.2015 22:10 8,8 C 91 % 1023,5 hPa 0,0 l/m 0,1 km/h (0 Bft) NW 325 0 min 0,000 mm 0,0 UV-I 0 W/m 7,4 C 8,8 C 1,6 km/h (1 Bft) 98,29 %
29.10.2015 22:15 8,8 C 91 % 1023,6 hPa 0,0 l/m 0,1 km/h (0 Bft) NW 325 0 min 0,000 mm 0,0 UV-I 0 W/m 7,4 C 8,8 C 1,6 km/h (1 Bft) 96,33 %
29.10.2015 22:20 8,8 C 91 % 1023,6 hPa 0,0 l/m 0,5 km/h (0 Bft) N 350 0 min 0,000 mm 0,0 UV-I 0 W/m 7,4 C 8,8 C 3,2 km/h (1 Bft) 98,31 %
29.10.2015 22:25 8,8 C 91 % 1023,5 hPa 0,0 l/m 0,0 km/h (0 Bft) N 350 0 min 0,000 mm 0,0 UV-I 0 W/m 7,4 C 8,8 C 1,6 km/h (1 Bft) 99,15 %
29.10.2015 22:30 8,8 C 90 % 1023,6 hPa 0,0 l/m 0,1 km/h (0 Bft) N 350 0 min 0,000 mm 0,0 UV-I 0 W/m 7,3 C 8,8 C 1,6 km/h (1 Bft) 100,00 %
29.10.2015 22:35 8,8 C 90 % 1023,6 hPa 0,0 l/m 0,0 km/h (0 Bft) N 350 0 min 0,000 mm 0,0 UV-I 0 W/m 7,3 C 8,8 C 1,6 km/h (1 Bft) 99,15 %
29.10.2015 22:40 8,8 C 90 % 1023,6 hPa 0,0 l/m 0,2 km/h (0 Bft) N 350 0 min 0,000 mm 0,0 UV-I 0 W/m 7,3 C 8,8 C 1,6 km/h (1 Bft) 99,15 %
29.10.2015 22:45 8,8 C 91 % 1023,6 hPa 0,0 l/m 0,1 km/h (0 Bft) N 350 0 min 0,000 mm 0,0 UV-I 0 W/m 7,4 C 8,8 C 1,6 km/h (1 Bft) 99,15 %
29.10.2015 22:50 8,7 C 91 % 1023,6 hPa 0,0 l/m 0,0 km/h (0 Bft) N 350 0 min 0,000 mm 0,0 UV-I 0 W/m 7,3 C 8,7 C 0,0 km/h (0 Bft) 100,00 %
29.10.2015 22:55 8,8 C 90 % 1023,7 hPa 0,0 l/m 0,0 km/h (0 Bft) N 350 0 min 0,000 mm 0,0 UV-I 0 W/m 7,3 C 8,8 C 0,0 km/h (0 Bft) 98,31 %
29.10.2015 23:00 8,8 C 90 % 1023,7 hPa 0,0 l/m 0,0 km/h (0 Bft) N 350 0 min 0,000 mm 0,0 UV-I 0 W/m 7,3 C 8,8 C 0,0 km/h (0 Bft) 97,44 %
29.10.2015 23:05 8,7 C 90 % 1023,8 hPa 0,0 l/m 0,0 km/h (0 Bft) N 350 0 min 0,000 mm 0,0 UV-I 0 W/m 7,2 C 8,7 C 0,0 km/h (0 Bft) 98,31 %
29.10.2015 23:10 8,7 C 90 % 1023,8 hPa 0,0 l/m 0,0 km/h (0 Bft) N 350 0 min 0,000 mm 0,0 UV-I 0 W/m 7,2 C 8,7 C 0,0 km/h (0 Bft) 99,08 %
29.10.2015 23:15 8,7 C 92 % 1023,8 hPa 0,0 l/m 0,1 km/h (0 Bft) N 350 0 min 0,000 mm 0,0 UV-I 0 W/m 7,5 C 8,7 C 1,6 km/h (1 Bft) 99,15 %
29.10.2015 23:20 8,6 C 92 % 1023,8 hPa 0,0 l/m 0,0 km/h (0 Bft) N 350 0 min 0,000 mm 0,0 UV-I 0 W/m 7,4 C 8,6 C 0,0 km/h (0 Bft) 99,19 %
29.10.2015 23:25 8,6 C 92 % 1023,9 hPa 0,0 l/m 0,0 km/h (0 Bft) N 350 0 min 0,000 mm 0,0 UV-I 0 W/m 7,4 C 8,6 C 0,0 km/h (0 Bft) 100,00 %
29.10.2015 23:30 8,6 C 93 % 1023,9 hPa 0,0 l/m 0,0 km/h (0 Bft) N 350 0 min 0,000 mm 0,0 UV-I 0 W/m 7,5 C 8,6 C 0,0 km/h (0 Bft) 97,50 %
29.10.2015 23:35 8,5 C 93 % 1024,0 hPa 0,0 l/m 0,0 km/h (0 Bft) N 350 0 min 0,000 mm 0,0 UV-I 0 W/m 7,4 C 8,5 C 0,0 km/h (0 Bft) 99,15 %
29.10.2015 23:40 8,5 C 93 % 1023,9 hPa 0,0 l/m 0,0 km/h (0 Bft) N 350 0 min 0,000 mm 0,0 UV-I 0 W/m 7,4 C 8,5 C 0,0 km/h (0 Bft) 99,15 %
29.10.2015 23:45 8,4 C 93 % 1024,0 hPa 0,0 l/m 0,0 km/h (0 Bft) N 350 0 min 0,000 mm 0,0 UV-I 0 W/m 7,3 C 8,4 C 0,0 km/h (0 Bft) 98,29 %
29.10.2015 23:50 8,4 C 93 % 1024,0 hPa 0,0 l/m 0,0 km/h (0 Bft) N 350 0 min 0,000 mm 0,0 UV-I 0 W/m 7,3 C 8,4 C 0,0 km/h (0 Bft) 99,15 %
29.10.2015 23:55 8,4 C 93 % 1024,1 hPa 0,0 l/m 0,0 km/h (0 Bft) N 350 0 min 0,000 mm 0,0 UV-I 0 W/m 7,3 C 8,4 C 0,0 km/h (0 Bft) 99,15 %
_ Min-Zeit 05:45 14:20 00:00 - 04:30 - - - - - - 01:35 01:45 04:30 20:40
Minimum _ 7,6 C 83 % 1012,1 hPa - 0,0 km/h (0 Bft) - - - - - - 6,7 C 3,9 C 0,0 km/h (0 Bft) 95,76 %
_ Max-Zeit 14:30 06:05 23:55 00:00 00:45 - - 07:55 12:00 11:40 12:00 11:40 14:30 01:05 00:00
Maximum _ 10,6 C 97 % 1024,1 hPa 0,0 l/m 12,6 km/h
O-NO (3 Bft)
- - 5 min 0,076 mm 1,0 UV-I 214 W/m 8,2 C 10,6 C 20,9 km/h
O (4 Bft)
100,00 %
Durchschnitt _ 8,9 C 91 % 1018,1 hPa #0,0 l/m 2,3 km/h (1 Bft) W - #15 min. #0,381 mm 0,7 UV-I 83 W/m 7,5 C 8,7 C 5,3 km/h (1 Bft) 99,14 %